Weather History for KMSV - March, 2014

Change the Weather History Date:

Saturday, March 22, 2014

  Actual Average Record
Temperature  
Mean Temperature - -  
Max Temperature - 41 °F 73 °F (2012)
Min Temperature - 25 °F 12 °F (2002)
Moisture  
Dew Point -    
Average Humidity    
Maximum Humidity    
Minimum Humidity    
Precipitation  
Precipitation 0.00 in - - ()
Sea Level Pressure  
Sea Level Pressure 29.87 in    
Wind  
Wind Speed 7 mph (NW)    
Max Wind Speed 22 mph    
Max Gust Speed 34 mph    
Visibility 10 miles    
Events      
Averages and records for this station are not official NWS values.
T = Trace of Precipitation, MM = Missing Value Source: NWS Daily Summary

Daily Weather History Graph

Daily Weather History Graph

Search for Another Location

Airport or City:

Trip Planner

Search our weather history database for the weather conditions in past years. The results will help you decide how hot, cold, wet, or windy it might be!

Date:

Astronomy

Mar. 22, 2014 Rise Set
Actual Time 6:59 AM EDT 7:13 PM EDT
Civil Twilight 6:31 AM EDT 7:41 PM EDT
Nautical Twilight 5:58 AM EDT 8:13 PM EDT
Astronomical Twilight 5:25 AM EDT 8:47 PM EDT
Moon 12:34 AM EDT (3/22) 10:36 AM EDT (3/22)
Length of Visible Light 13h 09m
Length of Day
12h 14m
Waning Gibbous, 65% of the Moon is Illuminated
Mar 22
Waning Gibbous
Mar 23
Last Quarter
Mar 30
New
Apr 7
First Quarter
Apr 15
Full

Hourly Weather History & Observations

Time (EDT) Temp. Dew Point Humidity Pressure Visibility Wind Dir Wind Speed Gust Speed Precip Events Conditions
12:15 AM - - N/A% 30.01 in 10.0 mi Calm Calm - N/A   Clear
12:35 AM - - N/A% 30.00 in 10.0 mi North 4.6 mph - N/A   Clear
12:55 AM - - N/A% 29.99 in 10.0 mi Calm Calm - N/A   Clear
1:15 AM - - N/A% 29.98 in 10.0 mi NE 3.5 mph - N/A   Clear
1:35 AM - - N/A% 29.98 in 10.0 mi Calm Calm - N/A   Clear
1:55 AM - - N/A% 29.97 in 10.0 mi East 4.6 mph - N/A   Clear
2:15 AM - - N/A% 29.96 in 10.0 mi ENE 4.6 mph - N/A   Clear
2:35 AM - - N/A% 29.97 in 10.0 mi Calm Calm - N/A   Mostly Cloudy
2:55 AM - - N/A% 29.96 in 10.0 mi East 4.6 mph - N/A   Mostly Cloudy
3:15 AM - - N/A% 29.95 in 10.0 mi ESE 5.8 mph - N/A   Scattered Clouds
3:35 AM - - N/A% 29.94 in 10.0 mi ENE 4.6 mph - N/A   Partly Cloudy
3:55 AM - - N/A% 29.92 in 10.0 mi East 6.9 mph - N/A   Partly Cloudy
4:15 AM - - N/A% 29.92 in 10.0 mi East 5.8 mph - N/A   Clear
4:35 AM - - N/A% 29.91 in 10.0 mi East 6.9 mph - N/A   Clear
4:55 AM - - N/A% 29.90 in 10.0 mi East 6.9 mph - N/A   Clear
5:15 AM - - N/A% 29.89 in 10.0 mi East 6.9 mph - N/A   Clear
5:35 AM - - N/A% 29.89 in 10.0 mi East 6.9 mph - N/A   Clear
5:55 AM - - N/A% 29.87 in 10.0 mi East 8.1 mph - N/A   Partly Cloudy
6:15 AM - - N/A% 29.87 in 10.0 mi East 6.9 mph - N/A   Partly Cloudy
6:35 AM - - N/A% 29.86 in 10.0 mi East 6.9 mph - N/A   Partly Cloudy
6:55 AM - - N/A% 29.85 in 10.0 mi ENE 8.1 mph - N/A   Scattered Clouds
7:15 AM - - N/A% 29.84 in 10.0 mi East 5.8 mph - N/A   Scattered Clouds
7:35 AM - - N/A% 29.83 in 10.0 mi East 5.8 mph - N/A   Partly Cloudy
7:55 AM - - N/A% 29.82 in 10.0 mi East 9.2 mph - N/A   Clear
8:15 AM - - N/A% 29.80 in 10.0 mi East 9.2 mph - N/A   Clear
8:35 AM - - N/A% 29.78 in 10.0 mi East 8.1 mph - N/A   Partly Cloudy
8:55 AM - - N/A% 29.76 in 10.0 mi East 8.1 mph - N/A   Clear
9:15 AM - - N/A% 29.75 in 10.0 mi East 8.1 mph - N/A   Partly Cloudy
9:35 AM - - N/A% 29.75 in 10.0 mi SE 4.6 mph - N/A   Scattered Clouds
9:55 AM - - N/A% 29.77 in 10.0 mi Calm Calm - N/A   Partly Cloudy
10:15 AM - - N/A% 29.78 in 10.0 mi SW 4.6 mph - N/A   Mostly Cloudy
10:35 AM - - N/A% 29.77 in 3.0 mi South 3.5 mph - N/A   Mostly Cloudy
10:55 AM - - N/A% 29.75 in 10.0 mi SW 3.5 mph - N/A   Scattered Clouds
11:15 AM - - N/A% 29.75 in 10.0 mi WSW 8.1 mph - N/A   Partly Cloudy
11:35 AM - - N/A% 29.75 in 10.0 mi WSW 6.9 mph - N/A   Partly Cloudy
11:55 AM - - N/A% 29.74 in 10.0 mi West 9.2 mph 18.4 mph N/A   Partly Cloudy
12:15 PM - - N/A% 29.74 in 10.0 mi West 9.2 mph 23.0 mph N/A   Mostly Cloudy
12:35 PM - - N/A% 29.74 in 10.0 mi West 15.0 mph 27.6 mph N/A   Mostly Cloudy
12:55 PM - - N/A% 29.73 in 10.0 mi West 10.4 mph 31.1 mph N/A   Mostly Cloudy
1:15 PM - - N/A% 29.74 in 10.0 mi West 13.8 mph 25.3 mph N/A   Overcast
1:35 PM - - N/A% 29.74 in 10.0 mi West 13.8 mph 18.4 mph N/A   Mostly Cloudy
1:55 PM - - N/A% 29.74 in 10.0 mi West 18.4 mph 29.9 mph N/A   Mostly Cloudy
2:15 PM - - N/A% 29.74 in 10.0 mi West 20.7 mph 31.1 mph N/A   Scattered Clouds
2:35 PM - - N/A% 29.74 in 10.0 mi West 21.9 mph 34.5 mph N/A   Mostly Cloudy
2:55 PM - - N/A% 29.76 in 10.0 mi WNW 18.4 mph 32.2 mph N/A   Scattered Clouds
3:15 PM - - N/A% 29.76 in 10.0 mi WNW 17.3 mph 33.4 mph N/A   Partly Cloudy
3:35 PM - - N/A% 29.78 in 10.0 mi WNW 19.6 mph 34.5 mph N/A   Partly Cloudy
3:55 PM - - N/A% 29.78 in 10.0 mi NW 17.3 mph 24.2 mph N/A   Clear
4:15 PM - - N/A% 29.80 in 10.0 mi NW 15.0 mph 25.3 mph N/A   Clear
4:35 PM - - N/A% 29.80 in 10.0 mi NW 19.6 mph 25.3 mph N/A   Clear
4:55 PM - - N/A% 29.83 in 10.0 mi NW 19.6 mph 24.2 mph N/A   Clear
5:15 PM - - N/A% 29.84 in 10.0 mi NW 19.6 mph 25.3 mph N/A   Clear
5:35 PM - - N/A% 29.86 in 10.0 mi NNW 18.4 mph 26.5 mph N/A   Clear
5:55 PM - - N/A% 29.88 in 10.0 mi NW 10.4 mph 20.7 mph N/A   Clear
6:15 PM - - N/A% 29.89 in 10.0 mi NW 13.8 mph 24.2 mph N/A   Clear
6:35 PM - - N/A% 29.90 in 10.0 mi NNW 21.9 mph 28.8 mph N/A   Clear
6:55 PM - - N/A% 29.91 in 10.0 mi NW 13.8 mph 25.3 mph N/A   Clear
7:15 PM - - N/A% 29.92 in 10.0 mi NW 16.1 mph 20.7 mph N/A   Clear
7:35 PM - - N/A% 29.92 in 10.0 mi NNW 13.8 mph - N/A   Clear
7:55 PM - - N/A% 29.94 in 10.0 mi NNW 13.8 mph - N/A   Clear
8:15 PM - - N/A% 29.94 in 10.0 mi NNW 13.8 mph 19.6 mph N/A   Clear
8:35 PM - - N/A% 29.96 in 10.0 mi NW 6.9 mph - N/A   Clear
8:55 PM - - N/A% 29.96 in 10.0 mi NW 9.2 mph 17.3 mph N/A   Clear
9:15 PM - - N/A% 29.97 in 10.0 mi WNW 4.6 mph - N/A   Clear
9:35 PM - - N/A% 29.97 in 10.0 mi NW 8.1 mph - N/A   Clear
9:55 PM - - N/A% 29.97 in 10.0 mi NW 9.2 mph - N/A   Clear
10:15 PM - - N/A% 29.98 in 10.0 mi SW 3.5 mph - N/A   Clear
10:35 PM - - N/A% 29.98 in 10.0 mi WSW 5.8 mph - N/A   Clear
10:55 PM - - N/A% 29.98 in 10.0 mi WNW 6.9 mph - N/A   Clear
11:15 PM - - N/A% 29.98 in 10.0 mi WNW 8.1 mph - N/A   Clear
11:35 PM - - N/A% 29.98 in 10.0 mi WNW 9.2 mph - N/A   Clear
11:55 PM - - N/A% 29.99 in 10.0 mi WNW 9.2 mph - N/A   Clear